This demonstration page uses our WeatherBlox Daily Observations layout. Learn more.

Left ArrowRight Arrow

34.16533, -84.80231

Hourly Observations for July 25, 2020

Temp ( °F °C ) Dew Point ( °F °C ) Humidity (%) Winds ( mph kmh ) Pressure ( in mb ) Visibility ( mi km ) Precip ( " mm )
12:53 am 00:53 Clear 77 25 72 22.2 85 85 NE 3 6 30.14 1021 10 16 0.00 0.00
1:53 am 01:53 Mostly Clear 77 25 70 21.1 79 79 E 3 6 30.12 1020 10 16 0.00 0.00
2:53 am 02:53 Clear 74 23.3 69 20.6 85 85 ESE 3 6 30.10 1019 10 16 0.00 0.00
3:53 am 03:53 Clear 73 22.8 68 20 84 84 Calm 30.09 1019 10 16 0.00 0.00
4:53 am 04:53 Clear 74 23.3 69 20.6 85 85 Calm 30.09 1019 10 16 0.00 0.00
5:53 am 05:53 Clear 73 22.8 68 20 84 84 Calm 30.10 1019 10 16 0.00 0.00
6:53 am 06:53 Mostly Sunny 71 21.7 68 20 90 90 Calm 30.12 1020 10 16 0.00 0.00
7:53 am 07:53 Sunny 76 24.4 70 21.1 82 82 Calm 30.14 1021 10 16 0.00 0.00
8:53 am 08:53 Sunny 79 26.1 70 21.1 74 74 VRB 3 6 30.15 1021 10 16 0.00 0.00
9:53 am 09:53 Sunny 81 27.2 70 21.1 69 69 ENE 3 6 30.16 1021 10 16 0.00 0.00
10:53 am 10:53 Sunny 84 28.9 71 21.7 65 65 N 3 6 30.16 1021 10 16 0.00 0.00
11:53 am 11:53 Sunny 87 30.6 71 21.7 59 59 NNE 5 7 30.16 1021 10 16 0.00 0.00
12:53 pm 12:53 Sunny 90 32.2 71 21.7 54 54 VRB 6 9 30.14 1021 10 16 0.00 0.00
1:53 pm 13:53 Sunny 93 33.9 70 21.1 47 47 N 9 15 30.10 1019 10 16 0.00 0.00
2:53 pm 14:53 Cloudy 91 32.8 68 20 47 47 VRB 3 6 30.07 1018 10 16 0.00 0.00
3:29 pm 15:29 Partly Cloudy with Thunderstorms 93 33.9 69 20.6 46 46 Calm 30.04 1017 10 16 0.00 0.00
3:46 pm 15:46 Mostly Sunny 93 33.9 67 19.4 42 42 Calm 30.04 1017 10 16 0.00 0.00
3:53 pm 15:53 Partly Cloudy 93 33.9 67 19.4 42 42 N 3 6 30.04 1017 10 16 0.00 0.00
4:53 pm 16:53 Partly Cloudy with Nearby Thunderstorms 94 34.4 68 20 43 43 VRB 6 9 30.04 1017 10 16 0.00 0.00
5:26 pm 17:26 Partly Cloudy with Thunderstorms 88 31.1 69 20.6 54 54 S 12 19 30.05 1018 10 16 0.00 0.00
5:53 pm 17:53 Mostly Cloudy with Thunderstorms 82 27.8 66 18.9 58 58 SSW 8 13 30.08 1019 10 16 0.00 0.00
6:53 pm 18:53 Mostly Cloudy with Nearby Thunderstorms 73 22.8 69 20.6 87 87 Calm 30.11 1020 5 8 0.05 1.27
7:09 pm 19:09 Mostly Cloudy with Light Rain 73 22.8 70 21.1 90 90 Calm 30.13 1020 9 14 0.00 0.00
7:18 pm 19:18 Mostly Cloudy with Thunderstorms 73 22.8 70 21.1 90 90 Calm 30.13 1020 10 16 0.00 0.00
7:38 pm 19:38 Partly Cloudy 73 22.8 70 21.1 90 90 NE 3 6 30.14 1021 10 16 0.00 0.00
7:53 pm 19:53 Partly Cloudy with Light Rain 73 22.8 70 21.1 90 90 N 5 7 30.14 1021 9 14 0.00 0.00
8:53 pm 20:53 Partly Cloudy with Light Rain 73 22.8 70 21.1 90 90 Calm 30.14 1021 10 16 0.02 0.51
9:53 pm 21:53 Mostly Clear 73 22.8 70 21.1 90 90 Calm 30.15 1021 10 16 0.00 0.00
10:53 pm 22:53 Clear 73 22.8 69 20.6 87 87 Calm 30.16 1021 10 16 0.01 0.25
11:53 pm 23:53 Mostly Cloudy 72 22.2 70 21.1 94 94 Calm 30.16 1021 10 16 0.00 0.00

Powered by AerisWeather